NEODyS-2

Near Earth Objects - Dynamic Site
NEODyS ∴ Observatories ∴ Site 691 ∴ Obs & residuals
Contact »
691  ▹ 
OBSERVATIONS AND RESIDUALS

691-Steward Observatory, Kitt Peak-Spacewatch

Detections | Residuals | Detections & Residuals

[1-200] [201-400] [401-600] [601-800] [801-1000] [1001-1200] [1201-1400] [1401-1600] [1601-1800] [1801-2000] [2001-2200] [2201-2400] [2401-2600] [2601-2800] [2801-3000] [3001-3200] [3201-3400] [3401-3600] [3601-3800] [3801-4000] [4001-4200] [4201-4400] [4401-4600] [4601-4800] [4801-5000] [5001-5200] [5201-5400] [5401-5600] [5601-5800] [5801-6000] [6001-6200] [6201-6400] [6401-6600] [6601-6800] [6801-7000] [7001-7200] [7201-7400] [7401-7600] [7601-7800] [7801-8000] [8001-8200] [8201-8400] [8401-8600] [8601-8800] [8801-9000] [9001-9200] [9201-9400] [9401-9600] [9601-9800] [9801-10000] [10001-10200] [10201-10400] [10401-10600] [10601-10800] [10801-11000] [11001-11200] [11201-11400] [11401-11600] [11601-11800] [11801-12000] [12001-12200] [12201-12400] [12401-12600] [12601-12800] [12801-13000] [13001-13200] [13201-13400] [13401-13600] [13601-13800] [13801-14000] [14001-14200] [14201-14400] [14401-14600] [14601-14800] [14801-15000] [15001-15200] [15201-15400] [15401-15600] [15601-15800] [15801-16000] [16001-16200] [16201-16400] [16401-16600] [16601-16800] [16801-17000] [17001-17200] [17201-17400] [17401-17600] [17601-17800] [17801-18000] [18001-18200] [18201-18400] [18401-18600] [18601-18800] [18801-19000] [19001-19200] [19201-19400] [19401-19600] [19601-19800] [19801-20000] [20001-20200] [20201-20400] [20401-20600] [20601-20800] [20801-21000] [21001-21200] [21201-21400] [21401-21600] [21601-21800] [21801-22000] [22001-22200] [22201-22400] [22401-22600] [22601-22800] [22801-23000] [23001-23200] [23201-23400] [23401-23600] [23601-23800] [23801-24000] [24001-24200] [24201-24400] [24401-24600] [24601-24800] [24801-25000] [25001-25200] [25201-25400] [25401-25600] [25601-25800] [25801-26000] [26001-26200] [26201-26400] [26401-26600] [26601-26800] [26801-27000] [27001-27200] [27201-27400] [27401-27600] [27601-27800] [27801-28000] [28001-28200] [28201-28400] [28401-28600] [28601-28800] [28801-29000] [29001-29200] [29201-29400] [29401-29600] [29601-29800] [29801-30000] [30001-30200] [30201-30400] [30401-30600] [30601-30800] [30801-31000] [31001-31200] [31201-31400] [31401-31600] [31601-31800] [31801-32000] [32001-32200] [32201-32400] [32401-32600] [32601-32800] [32801-33000] [33001-33200] [33201-33400] [33401-33600] [33601-33800] [33801-34000] [34001-34200] [34201-34400] [34401-34600] [34601-34800] [34801-35000] [35001-35200] [35201-35400] [35401-35600] [35601-35800] [35801-36000] [36001-36200] [36201-36400] [36401-36600] [36601-36800] [36801-37000] [37001-37200] [37201-37400] [37401-37600] [37601-37800] [37801-38000] [38001-38200] [38201-38400] [38401-38600] [38601-38800] [38801-39000] [39001-39200] [39201-39400] [39401-39600] [39601-39800] [39801-40000] [40001-40200] [40201-40400] [40401-40600] [40601-40800] [40801-41000] [41001-41200] [41201-41400] [41401-41600] [41601-41800] [41801-42000] [42001-42200] [42201-42400] [42401-42600] [42601-42800] [42801-43000] [43001-43200] [43201-43400] [43401-43600] [43601-43800] [43801-44000] [44001-44200] [44201-44400] [44401-44600] [44601-44800] [44801-45000] [45001-45200] [45201-45400] [45401-45600] [45601-45800] [45801-46000] [46001-46200] [46201-46400] [46401-46600] [46601-46800] [46801-47000] [47001-47200] [47201-47400] [47401-47600] [47601-47800] [47801-48000] [48001-48200] [48201-48400] [48401-48600] [48601-48800] [48801-49000] [49001-49200] [49201-49400] [49401-49600] [49601-49800] [49801-50000] [50001-50200] [50201-50388]

Designation T Tech N Date Right Ascension Declination Apparent Magnitude Star Catalog Site code χ Used A Used M
yr-mo-day precision hr:min:sec precision rms F bias residual deg min sec precision rms F bias residual mag/col rms residual
2018TW5 O C K 2018-11-09.16636 1.000E-05 23:16:26.240 1.500E-01 0.500 F -0.173 0.676 -18° 54' 57.50" 1.000E-01 0.500 F 0.118 -0.939 22.7 R 0.70 1.21 o 691 2.35 Yes Yes
2018TW5 O C K 2018-11-09.17727 1.000E-05 23:16:26.380 1.500E-01 0.500 F -0.173 0.095 -18° 54' 50.50" 1.000E-01 0.500 F 0.118 0.151 22.4 R 0.70 0.91 o 691 0.36 Yes Yes
2018UM1 O C K 2018-11-09.18837 1.000E-05 00:28:25.370 1.500E-01 0.500 F -0.179 0.226 +14° 13' 46.30" 1.000E-01 0.500 F 0.363 -0.111 20.4 R 0.70 0.03 o 691 0.50 Yes Yes
2018UM1 O C K 2018-11-09.19671 1.000E-05 00:28:26.700 1.500E-01 0.500 F -0.179 0.120 +14° 13' 40.50" 1.000E-01 0.500 F 0.363 0.015 20.6 R 0.70 0.23 o 691 0.24 Yes Yes
2018UM1 O C K 2018-11-09.20505 1.000E-05 00:28:28.050 1.500E-01 0.500 F -0.179 0.310 +14° 13' 34.10" 1.000E-01 0.500 F 0.363 -0.423 20.8 R 0.70 0.43 o 691 1.05 Yes Yes
2002GH1 O C 2018-11-09.21520 1.000E-05 00:55:21.760 1.500E-01 0.500 F -0.269 -0.443 -19° 20' 21.20" 1.000E-01 0.500 F 0.164 -0.201 20.9 V 0.70 0.13 o 691 0.97 Yes Yes
2018TP O C K 2018-11-09.23027 1.000E-05 00:53:01.130 1.500E-01 0.500 F -0.269 0.176 -19° 31' 58.00" 1.000E-01 0.500 F 0.164 -0.237 23.1 R 0.70 1.43 o 691 0.60 Yes Yes
2002GH1 O C 2018-11-09.23027 1.000E-05 00:55:21.120 1.500E-01 0.500 F -0.269 -0.373 -19° 20' 25.00" 1.000E-01 0.500 F 0.164 0.143 21.0 V 0.70 0.23 o 691 0.80 Yes Yes
2018TP O C K 2018-11-09.24533 1.000E-05 00:53:01.980 1.500E-01 0.500 F -0.269 0.006 -19° 31' 54.00" 1.000E-01 0.500 F 0.164 0.052 22.8 R 0.70 1.13 o 691 0.11 Yes Yes
2002GH1 O C 2018-11-09.24533 1.000E-05 00:55:20.470 1.500E-01 0.500 F -0.269 -0.456 -19° 20' 29.00" 1.000E-01 0.500 F 0.164 0.272 20.7 V 0.70 -0.07 o 691 1.06 Yes Yes
2018VD4 O C K 2018-11-09.28297 1.000E-05 02:01:03.590 1.500E-01 0.500 F -0.358 0.107 -01° 02' 53.10" 1.000E-01 0.500 F 0.247 0.139 20.8 R 0.70 0.33 o 691 0.36 Yes Yes
2018VD4 O C K 2018-11-09.29225 1.000E-05 02:01:06.330 1.500E-01 0.500 F -0.358 0.148 -01° 02' 01.40" 1.000E-01 0.500 F 0.247 -0.634 20.7 R 0.70 0.23 o 691 1.33 Yes Yes
2018VD4 O C K 2018-11-09.30155 1.000E-05 02:01:09.050 1.500E-01 0.500 F -0.358 -0.216 -01° 01' 07.90" 1.000E-01 0.500 F 0.247 0.321 20.9 R 0.70 0.43 o 691 0.78 Yes Yes
2018UX1 O C K 2018-11-09.31203 1.000E-05 03:03:13.990 1.500E-01 0.500 F -0.178 -0.078 -17° 47' 50.80" 1.000E-01 0.500 F -0.071 -0.621 20.6 R 0.70 -0.24 o 691 1.29 Yes Yes
2018UX1 O C K 2018-11-09.31865 1.000E-05 03:03:14.080 1.500E-01 0.500 F -0.178 0.607 -17° 48' 32.50" 1.000E-01 0.500 F -0.071 0.170 21.2 R 0.70 0.36 o 691 1.29 Yes Yes
2018UX1 O C K 2018-11-09.32530 1.000E-05 03:03:14.120 1.500E-01 0.500 F -0.178 0.567 -17° 49' 14.30" 1.000E-01 0.500 F -0.071 1.002 20.4 R 0.70 -0.44 o 691 2.36 Yes Yes
2018UJ O C 2018-11-09.33322 1.000E-05 02:55:55.430 1.500E-01 0.500 F -0.295 0.228 +03° 01' 48.60" 1.000E-01 0.500 F 0.199 -0.061 20.0 R 0.70 -0.07 o 691 0.47 Yes Yes
2018UJ O C 2018-11-09.33805 1.000E-05 02:55:56.300 1.500E-01 0.500 F -0.295 -0.304 +03° 01' 42.60" 1.000E-01 0.500 F 0.199 0.035 19.8 R 0.70 -0.27 o 691 0.61 Yes Yes
2018UJ O C 2018-11-09.34127 1.000E-05 02:55:56.860 1.500E-01 0.500 F -0.295 -0.961 +03° 01' 38.50" 1.000E-01 0.500 F 0.199 -0.001 20.8 R 0.70 0.73 o 691 1.93 Yes Yes
2018UY O C 2018-11-09.34376 1.000E-05 03:12:31.490 1.500E-01 0.500 F -0.267 -0.035 +15° 34' 48.40" 1.000E-01 0.500 F 0.232 0.236 20.4 R 0.70 0.26 o 691 0.48 Yes Yes
2018UY O C 2018-11-09.34716 1.000E-05 03:12:30.900 1.500E-01 0.500 F -0.267 0.092 +15° 34' 46.10" 1.000E-01 0.500 F 0.232 0.072 20.0 R 0.70 -0.14 o 691 0.23 Yes Yes
2018UY O C 2018-11-09.35227 1.000E-05 03:12:30.000 1.500E-01 0.500 F -0.267 0.088 +15° 34' 42.70" 1.000E-01 0.500 F 0.232 -0.113 20.7 R 0.70 0.56 o 691 0.29 Yes Yes
2018UW1 O C K 2018-11-09.35497 1.000E-05 02:17:22.600 1.500E-01 0.500 F -0.198 0.140 +22° 45' 23.80" 1.000E-01 0.500 F 0.242 0.181 22.4 R 0.70 0.65 o 691 0.49 Yes Yes
2018UW1 O C K 2018-11-09.37079 1.000E-05 02:17:23.570 1.500E-01 0.500 F -0.198 0.365 +22° 45' 07.80" 1.000E-01 0.500 F 0.242 0.188 22.7 R 0.70 0.95 o 691 0.87 Yes Yes
2018UW1 O C K 2018-11-09.38661 1.000E-05 02:17:24.540 1.500E-01 0.500 F -0.198 0.378 +22° 44' 51.70" 1.000E-01 0.500 F 0.242 0.199 22.2 R 0.70 0.45 o 691 0.91 Yes Yes
2018VK1 O C K 2018-11-09.40300 1.000E-05 04:00:15.600 1.500E-01 0.500 F -0.323 0.126 +00° 35' 13.10" 1.000E-01 0.500 F 0.097 0.349 o 691 0.75 Yes No
2018VK1 O C K 2018-11-09.40941 1.000E-05 04:00:19.220 1.500E-01 0.500 F -0.323 -0.046 +00° 35' 07.10" 1.000E-01 0.500 F 0.097 0.529 19.9 R 0.70 -0.13 o 691 1.07 Yes Yes
2018VK1 O C K 2018-11-09.41582 1.000E-05 04:00:22.860 1.500E-01 0.500 F -0.323 -0.106 +00° 35' 00.90" 1.000E-01 0.500 F 0.097 0.512 19.9 R 0.70 -0.13 o 691 1.06 Yes Yes
2018VO1 O C K 2018-11-09.42298 1.000E-05 03:35:40.870 1.500E-01 0.500 F -0.343 -0.682 +13° 10' 44.60" 1.000E-01 0.500 F 0.155 -0.104 20.6 R 0.70 0.15 o 691 1.42 Yes Yes
2018VO1 O C K 2018-11-09.42790 1.000E-05 03:35:41.340 1.500E-01 0.500 F -0.343 -0.060 +13° 10' 19.80" 1.000E-01 0.500 F 0.155 0.097 20.8 R 0.70 0.35 o 691 0.23 Yes Yes
2018VO1 O C K 2018-11-09.43281 1.000E-05 03:35:41.770 1.500E-01 0.500 F -0.343 -0.071 +13° 09' 54.60" 1.000E-01 0.500 F 0.155 -0.151 20.8 R 0.70 0.35 o 691 0.34 Yes Yes
2018UQ2 O C 2018-11-09.43802 1.000E-05 03:50:59.080 1.500E-01 0.500 F -0.113 0.123 +27° 05' 15.30" 1.000E-01 0.500 F 0.261 0.022 18.0 R 0.70 -0.15 o 691 0.25 Yes Yes
2018UQ2 O C 2018-11-09.44008 1.000E-05 03:50:58.890 1.500E-01 0.500 F -0.113 0.050 +27° 05' 27.60" 1.000E-01 0.500 F 0.261 -0.001 17.9 R 0.70 -0.25 o 691 0.10 Yes Yes
2018UQ2 O C 2018-11-09.44215 1.000E-05 03:50:58.720 1.500E-01 0.500 F -0.113 0.250 +27° 05' 39.90" 1.000E-01 0.500 F 0.261 -0.078 17.8 R 0.70 -0.35 o 691 0.53 Yes Yes
2001WF49 O C K 2018-11-09.46272 1.000E-05 08:59:25.520 1.500E-01 0.500 F 0.092 0.538 +18° 35' 35.10" 1.000E-01 0.500 F 0.189 -0.180 20.4 R 0.70 -0.54 o 691 1.19 Yes Yes
2001WF49 O C K 2018-11-09.47136 1.000E-05 08:59:25.860 1.500E-01 0.500 F 0.092 -0.083 +18° 34' 58.20" 1.000E-01 0.500 F 0.189 -0.637 21.4 R 0.70 0.46 o 691 1.31 Yes Yes
2001WF49 O C K 2018-11-09.47999 1.000E-05 08:59:26.230 1.500E-01 0.500 F 0.092 -0.221 +18° 34' 22.00" 1.000E-01 0.500 F 0.189 -0.393 20.4 R 0.70 -0.54 o 691 0.93 Yes Yes
2001RA18 O C K 2018-11-09.49020 1.000E-05 09:28:08.080 1.500E-01 0.500 F 0.140 0.308 +00° 59' 08.30" 1.000E-01 0.500 F 0.279 -0.368 22.2 R 0.70 0.39 o 691 0.97 Yes Yes
2001RA18 O C K 2018-11-09.50077 1.000E-05 09:28:08.890 1.500E-01 0.500 F 0.140 -0.119 +00° 59' 02.00" 1.000E-01 0.500 F 0.279 -0.063 22.4 R 0.70 0.59 o 691 0.28 Yes Yes
2001RA18 O C K 2018-11-09.51135 1.000E-05 09:28:09.770 1.500E-01 0.500 F 0.140 0.509 +00° 58' 55.30" 1.000E-01 0.500 F 0.279 -0.152 o 691 1.09 Yes No
2001TD45 O C 2018-11-10.09445 1.000E-05 21:56:33.820 1.500E-01 0.500 F -0.021 0.012 +04° 34' 23.40" 1.000E-01 0.500 F 0.368 0.092 17.1 R 0.70 -1.24 o 691 0.19 Yes Yes
2001TD45 O C 2018-11-10.09779 1.000E-05 21:56:35.380 1.500E-01 0.500 F -0.021 -0.263 +04° 34' 34.00" 1.000E-01 0.500 F 0.368 -0.081 17.3 R 0.70 -1.04 o 691 0.55 Yes Yes
2001TD45 O C 2018-11-10.10001 1.000E-05 21:56:36.440 1.500E-01 0.500 F -0.021 -0.095 +04° 34' 41.30" 1.000E-01 0.500 F 0.368 0.063 16.5 R 0.70 -1.84 o 691 0.23 Yes Yes
2018VF1 O C K 2018-11-10.10417 1.000E-05 23:25:05.710 1.500E-01 0.500 F -0.059 -0.112 +24° 06' 17.90" 1.000E-01 0.500 F 0.176 0.153 21.7 R 0.70 0.48 o 691 0.39 Yes Yes
2018VF1 O C K 2018-11-10.10942 1.000E-05 23:25:05.060 1.500E-01 0.500 F -0.059 0.166 +24° 06' 24.80" 1.000E-01 0.500 F 0.176 -0.374 21.3 R 0.70 0.08 o 691 0.83 Yes Yes
2018VF1 O C K 2018-11-10.11465 1.000E-05 23:25:04.380 1.500E-01 0.500 F -0.059 0.004 +24° 06' 32.60" 1.000E-01 0.500 F 0.176 0.038 21.5 R 0.70 0.28 o 691 0.08 Yes Yes
2009WL6 O C K 2018-11-10.16409 1.000E-05 22:23:50.110 1.500E-01 0.500 F -0.063 0.616 -06° 11' 47.50" 1.000E-01 0.500 F 0.147 0.190 20.8 R 0.70 0.37 o 691 1.30 Yes Yes
2009WL6 O C K 2018-11-10.16882 1.000E-05 22:23:50.810 1.500E-01 0.500 F -0.063 0.329 -06° 11' 31.10" 1.000E-01 0.500 F 0.147 0.165 21.0 R 0.70 0.57 o 691 0.75 Yes Yes
2009WL6 O C K 2018-11-10.17356 1.000E-05 22:23:51.520 1.500E-01 0.500 F -0.063 0.162 -06° 11' 14.70" 1.000E-01 0.500 F 0.147 0.105 21.8 R 0.70 1.37 o 691 0.39 Yes Yes
2018VL O C K 2018-11-10.18161 1.000E-05 02:31:46.570 1.500E-01 0.500 F -0.339 0.080 +02° 07' 28.00" 1.000E-01 0.500 F 0.219 0.230 21.4 R 0.70 -0.01 o 691 0.49 Yes Yes
2018VL O C K 2018-11-10.19507 1.000E-05 02:31:45.650 1.500E-01 0.500 F -0.339 -0.390 +02° 07' 06.90" 1.000E-01 0.500 F 0.219 0.319 21.0 R 0.70 -0.42 o 691 1.02 Yes Yes
2018VL O C K 2018-11-10.20852 1.000E-05 02:31:44.740 1.500E-01 0.500 F -0.339 -0.167 +02° 06' 45.30" 1.000E-01 0.500 F 0.219 -0.134 21.2 R 0.70 -0.22 o 691 0.43 Yes Yes
2018TK2 O C 2018-11-10.23349 1.000E-05 23:05:10.400 1.500E-01 0.500 F -0.226 0.103 -13° 43' 35.20" 1.000E-01 0.500 F 0.172 0.070 19.5 R 0.70 -0.51 o 691 0.25 Yes Yes
2018TK2 O C 2018-11-10.23849 1.000E-05 23:05:10.830 1.500E-01 0.500 F -0.226 0.055 -13° 43' 25.30" 1.000E-01 0.500 F 0.172 -0.169 19.4 R 0.70 -0.61 o 691 0.36 Yes Yes
2018TK2 O C 2018-11-10.24183 1.000E-05 23:05:11.110 1.500E-01 0.500 F -0.226 -0.094 -13° 43' 18.50" 1.000E-01 0.500 F 0.172 -0.146 20.0 R 0.70 -0.01 o 691 0.35 Yes Yes
2018TC3 O C 2018-11-10.24482 1.000E-05 23:49:05.110 1.500E-01 0.500 F -0.266 0.439 -20° 39' 01.80" 1.000E-01 0.500 F 0.113 0.304 18.9 R 0.70 -0.27 o 691 1.08 Yes Yes
2018TC3 O C 2018-11-10.24875 1.000E-05 23:49:04.940 1.500E-01 0.500 F -0.266 -0.074 -20° 38' 55.70" 1.000E-01 0.500 F 0.113 0.269 19.2 R 0.70 0.03 o 691 0.56 Yes Yes
2018TC3 O C 2018-11-10.25466 1.000E-05 23:49:04.740 1.500E-01 0.500 F -0.266 -0.080 -20° 38' 46.30" 1.000E-01 0.500 F 0.113 0.431 18.9 R 0.70 -0.27 o 691 0.88 Yes Yes
2018TL2 O C K 2018-11-10.25847 1.000E-05 23:15:22.900 1.500E-01 0.500 F -0.376 0.304 -11° 43' 24.50" 1.000E-01 0.500 F 0.254 0.068 21.6 R 0.70 0.70 o 691 0.63 Yes Yes
2018TL2 O C K 2018-11-10.26211 1.000E-05 23:15:22.900 1.500E-01 0.500 F -0.376 0.201 -11° 43' 23.70" 1.000E-01 0.500 F 0.254 0.101 21.5 R 0.70 0.60 o 691 0.45 Yes Yes
2018VM7 O C K 2018-11-10.31900 1.000E-05 00:18:26.730 1.500E-01 0.500 F -0.192 0.330 -04° 22' 22.80" 1.000E-01 0.500 F 0.296 0.317 20.8 R 0.70 -0.42 o 691 0.92 Yes Yes
2018VM7 O C K 2018-11-10.32632 1.000E-05 00:18:26.950 1.500E-01 0.500 F -0.192 0.286 -04° 22' 07.40" 1.000E-01 0.500 F 0.296 0.244 21.0 R 0.70 -0.22 o 691 0.76 Yes Yes
2018VM7 O C K 2018-11-10.33365 1.000E-05 00:18:27.140 1.500E-01 0.500 F -0.192 -0.237 -04° 21' 52.50" 1.000E-01 0.500 F 0.296 -0.348 21.1 R 0.70 -0.13 o 691 0.85 Yes Yes
2018VA7 O C K 2018-11-10.34359 1.000E-05 00:55:07.190 1.500E-01 0.500 F -0.250 0.707 +23° 04' 08.20" 1.000E-01 0.500 F 0.327 -0.218 21.2 R 0.70 0.03 o 691 1.57 Yes Yes
2018VA7 O C K 2018-11-10.35251 1.000E-05 00:55:05.230 1.500E-01 0.500 F -0.250 0.268 +23° 04' 50.50" 1.000E-01 0.500 F 0.327 0.298 21.4 R 0.70 0.22 o 691 0.88 Yes Yes
2018VA7 O C K 2018-11-10.36144 1.000E-05 00:55:03.240 1.500E-01 0.500 F -0.250 -0.656 +23° 05' 32.00" 1.000E-01 0.500 F 0.327 0.017 21.0 R 0.70 -0.18 o 691 1.43 Yes Yes
2018UB3 O C K 2018-11-10.39548 1.000E-05 02:40:04.100 1.500E-01 0.500 F -0.176 -0.103 +24° 53' 56.50" 1.000E-01 0.500 F 0.266 -0.247 22.2 R 0.70 0.90 o 691 0.56 Yes Yes
2018UB3 O C K 2018-11-10.40209 1.000E-05 02:40:04.770 1.500E-01 0.500 F -0.176 -0.438 +24° 53' 44.80" 1.000E-01 0.500 F 0.266 -0.778 o 691 1.88 Yes No
2018UB3 O C K 2018-11-10.40873 1.000E-05 02:40:05.510 1.500E-01 0.500 F -0.176 0.065 +24° 53' 34.20" 1.000E-01 0.500 F 0.266 -0.130 21.8 R 0.70 0.49 o 691 0.31 Yes Yes
2018UY O C 2018-11-10.41570 1.000E-05 03:09:26.390 1.500E-01 0.500 F -0.313 -0.158 +15° 23' 26.70" 1.000E-01 0.500 F 0.247 -0.365 20.4 V 0.70 -0.03 o 691 0.80 Yes Yes
2018UY O C 2018-11-10.41864 1.000E-05 03:09:25.860 1.500E-01 0.500 F -0.313 -0.190 +15° 23' 25.30" 1.000E-01 0.500 F 0.247 0.184 20.4 V 0.70 -0.03 o 691 0.53 Yes Yes
2018UY O C 2018-11-10.42158 1.000E-05 03:09:25.320 1.500E-01 0.500 F -0.313 -0.369 +15° 23' 23.00" 1.000E-01 0.500 F 0.247 -0.166 20.1 V 0.70 -0.33 o 691 0.81 Yes Yes
2018VP9 O C K 2018-11-10.43342 1.000E-05 08:41:24.720 1.500E-01 0.500 F 0.183 0.127 +05° 17' 21.60" 1.000E-01 0.500 F 0.245 -0.607 20.6 R 0.70 -0.56 o 691 1.25 Yes Yes
2018VP9 O C K 2018-11-10.43810 1.000E-05 08:41:24.900 1.500E-01 0.500 F 0.183 -0.292 +05° 17' 05.60" 1.000E-01 0.500 F 0.245 -0.144 21.2 R 0.70 0.04 o 691 0.66 Yes Yes
2018VG8 O C K 2018-11-10.45271 1.000E-05 10:18:54.440 1.500E-01 0.500 F 0.214 0.045 +05° 59' 03.50" 1.000E-01 0.500 F 0.131 -0.115 21.9 R 0.70 0.62 o 691 0.25 Yes Yes
2018VG8 O C K 2018-11-10.45782 1.000E-05 10:18:55.360 1.500E-01 0.500 F 0.214 -0.347 +05° 58' 59.80" 1.000E-01 0.500 F 0.131 0.364 21.2 R 0.70 -0.08 o 691 1.01 Yes Yes
2018VG8 O C K 2018-11-10.46292 1.000E-05 10:18:56.370 1.500E-01 0.500 F 0.214 0.636 +05° 58' 54.60" 1.000E-01 0.500 F 0.131 -0.665 21.4 R 0.70 0.12 o 691 1.85 Yes Yes
2001RA18 O C K 2018-11-10.46848 1.000E-05 09:29:26.990 1.500E-01 0.500 F 0.140 0.095 +00° 49' 01.40" 1.000E-01 0.500 F 0.279 -0.191 22.4 R 0.70 0.59 o 691 0.43 Yes Yes
2016OP5 O C 2018-11-10.46848 1.000E-05 09:27:26.600 1.500E-01 0.500 F 0.114 -0.220 +01° 06' 21.70" 1.000E-01 0.500 F 0.215 -0.171 20.2 V 0.70 -0.31 o 691 0.56 Yes Yes
2016OP5 O C 2018-11-10.47557 1.000E-05 09:27:26.230 1.500E-01 0.500 F 0.114 -0.138 +01° 06' 44.20" 1.000E-01 0.500 F 0.215 -0.438 19.8 V 0.70 -0.71 o 691 0.93 Yes Yes
2001RA18 O C K 2018-11-10.47912 1.000E-05 09:29:27.750 1.500E-01 0.500 F 0.140 -0.854 +00° 48' 56.50" 1.000E-01 0.500 F 0.279 1.459 o 691 3.34 No No
2016OP5 O C 2018-11-10.48267 1.000E-05 09:27:25.850 1.500E-01 0.500 F 0.114 -0.161 +01° 07' 07.60" 1.000E-01 0.500 F 0.215 0.166 20.2 V 0.70 -0.31 o 691 0.46 Yes Yes
2001RA18 O C K 2018-11-10.48975 1.000E-05 09:29:28.650 1.500E-01 0.500 F 0.140 0.327 +00° 48' 48.90" 1.000E-01 0.500 F 0.279 0.402 21.9 R 0.70 0.09 o 691 1.06 Yes Yes
2001UU92 O C K 2018-11-10.50088 1.000E-05 09:40:11.620 1.500E-01 0.500 F 0.055 0.210 +26° 10' 01.50" 1.000E-01 0.500 F 0.279 0.379 21.9 R 0.70 1.55 o 691 0.87 Yes Yes
2001UU92 O C K 2018-11-10.50528 1.000E-05 09:40:13.110 1.500E-01 0.500 F 0.055 -1.044 +26° 09' 55.10" 1.000E-01 0.500 F 0.279 0.633 o 691 2.55 Yes No
2001UU92 O C K 2018-11-10.50970 1.000E-05 09:40:14.850 1.500E-01 0.500 F 0.055 0.978 +26° 09' 47.60" 1.000E-01 0.500 F 0.279 -0.177 21.6 R 0.70 1.25 o 691 2.07 Yes Yes
2005YY36 O C 2018-11-10.51896 1.000E-05 06:55:23.430 1.500E-01 0.500 F -0.109 -0.186 +28° 45' 07.30" 1.000E-01 0.500 F 0.193 -0.271 20.3 R 0.70 0.46 o 691 0.66 Yes Yes
2005YY36 O C 2018-11-10.52303 1.000E-05 06:55:24.080 1.500E-01 0.500 F -0.109 0.184 +28° 45' 06.10" 1.000E-01 0.500 F 0.193 0.128 20.2 R 0.70 0.36 o 691 0.45 Yes Yes
2005YY36 O C 2018-11-10.52574 1.000E-05 06:55:24.490 1.500E-01 0.500 F -0.109 0.129 +28° 45' 04.90" 1.000E-01 0.500 F 0.193 -0.005 20.1 R 0.70 0.26 o 691 0.26 Yes Yes
2001TD45 O C K 2018-11-11.08932 1.000E-05 22:04:09.970 1.500E-01 0.500 F -0.024 -0.159 +05° 24' 24.10" 1.000E-01 0.500 F 0.381 -0.039 16.6 R 0.70 -1.86 o 691 0.33 Yes Yes
2001TD45 O C K 2018-11-11.09158 1.000E-05 22:04:10.890 1.500E-01 0.500 F -0.024 -0.490 +05° 24' 30.40" 1.000E-01 0.500 F 0.381 -0.109 17.4 R 0.70 -1.06 o 691 1.01 Yes Yes
2001TD45 O C K 2018-11-11.09496 1.000E-05 22:04:12.350 1.500E-01 0.500 F -0.024 0.277 +05° 24' 40.30" 1.000E-01 0.500 F 0.381 0.269 17.0 R 0.70 -1.46 o 691 0.78 Yes Yes
2018UM1 O C K 2018-11-11.09818 1.000E-05 00:34:09.260 1.500E-01 0.500 F -0.152 -0.399 +13° 52' 24.60" 1.000E-01 0.500 F 0.246 -0.095 20.9 R 0.70 0.39 o 691 0.82 Yes Yes
2018UM1 O C K 2018-11-11.10323 1.000E-05 00:34:10.070 1.500E-01 0.500 F -0.152 0.019 +13° 52' 21.70" 1.000E-01 0.500 F 0.246 -0.052 20.8 R 0.70 0.29 o 691 0.11 Yes Yes
2018UM1 O C K 2018-11-11.10827 1.000E-05 00:34:10.840 1.500E-01 0.500 F -0.152 -0.091 +13° 52' 19.20" 1.000E-01 0.500 F 0.246 0.395 20.8 R 0.70 0.29 o 691 0.81 Yes Yes
2018TG6 O C K 2018-11-11.14900 1.000E-05 23:53:29.710 1.500E-01 0.500 F -0.121 -0.018 +02° 00' 46.90" 1.000E-01 0.500 F 0.334 -0.183 19.8 R 0.70 -0.14 o 691 0.37 Yes Yes
2018TG6 O C K 2018-11-11.15645 1.000E-05 23:53:25.970 1.500E-01 0.500 F -0.121 0.121 +02° 01' 04.80" 1.000E-01 0.500 F 0.334 -0.123 19.8 R 0.70 -0.14 o 691 0.35 Yes Yes
2018TG6 O C K 2018-11-11.16389 1.000E-05 23:53:22.210 1.500E-01 0.500 F -0.121 -0.036 +02° 01' 22.60" 1.000E-01 0.500 F 0.334 -0.115 20.1 R 0.70 0.16 o 691 0.24 Yes Yes
2018UG3 O C K 2018-11-11.19351 1.000E-05 03:22:37.330 1.500E-01 0.500 F -0.293 -0.244 +21° 10' 00.20" 1.000E-01 0.500 F 0.390 0.002 19.4 R 0.70 0.51 o 691 0.50 Yes Yes
2018UG3 O C K 2018-11-11.19622 1.000E-05 03:22:37.550 1.500E-01 0.500 F -0.293 -0.318 +21° 10' 16.70" 1.000E-01 0.500 F 0.390 -0.226 19.0 R 0.70 0.11 o 691 0.80 Yes Yes
2018UG3 O C K 2018-11-11.19893 1.000E-05 03:22:37.810 1.500E-01 0.500 F -0.293 0.189 +21° 10' 33.10" 1.000E-01 0.500 F 0.390 -0.540 19.4 R 0.70 0.51 o 691 1.16 Yes Yes
2018VM7 O C K 2018-11-11.20941 1.000E-05 00:18:58.930 1.500E-01 0.500 F -0.240 -0.033 -03° 51' 25.80" 1.000E-01 0.500 F 0.329 0.294 21.5 R 0.70 0.23 o 691 0.60 Yes Yes
2018VM7 O C K 2018-11-11.22443 1.000E-05 00:18:59.390 1.500E-01 0.500 F -0.240 0.054 -03° 50' 54.90" 1.000E-01 0.500 F 0.329 0.187 21.1 R 0.70 -0.17 o 691 0.39 Yes Yes
2018VM7 O C K 2018-11-11.23942 1.000E-05 00:18:59.850 1.500E-01 0.500 F -0.240 0.115 -03° 50' 24.00" 1.000E-01 0.500 F 0.329 0.145 21.2 R 0.70 -0.07 o 691 0.37 Yes Yes
2001KQ1 O C 2018-11-11.36082 1.000E-05 04:36:20.360 1.500E-01 0.500 F -0.170 0.159 +16° 33' 53.30" 1.000E-01 0.500 F 0.292 0.050 15.2 V 0.70 -0.09 o 691 0.33 Yes Yes
2018US2 O C K 2018-11-11.36082 1.000E-05 04:36:56.230 1.500E-01 0.500 F -0.170 -0.137 +16° 03' 21.40" 1.000E-01 0.500 F 0.292 0.026 21.3 R 0.70 0.45 o 691 0.29 Yes Yes
2001KQ1 O C 2018-11-11.36566 1.000E-05 04:36:20.100 1.500E-01 0.500 F -0.170 -0.067 +16° 33' 27.50" 1.000E-01 0.500 F 0.292 -0.069 15.2 V 0.70 -0.08 o 691 0.19 Yes Yes
2018US2 O C K 2018-11-11.36687 1.000E-05 04:36:57.350 1.500E-01 0.500 F -0.170 0.027 +16° 03' 00.80" 1.000E-01 0.500 F 0.292 0.093 20.7 R 0.70 -0.15 o 691 0.20 Yes Yes
2001KQ1 O C 2018-11-11.37050 1.000E-05 04:36:19.850 1.500E-01 0.500 F -0.170 -0.149 +16° 33' 01.70" 1.000E-01 0.500 F 0.292 -0.180 15.2 V 0.70 -0.08 o 691 0.47 Yes Yes
2018US2 O C K 2018-11-11.37299 1.000E-05 04:36:58.490 1.500E-01 0.500 F -0.170 0.305 +16° 02' 39.10" 1.000E-01 0.500 F 0.292 -0.686 21.7 R 0.70 0.85 o 691 1.56 Yes Yes
2018TR6 O C K 2018-11-11.38392 1.000E-05 03:43:42.550 1.500E-01 0.500 F 0.033 -0.081 +30° 23' 53.80" 1.000E-01 0.500 F 0.228 -0.340 22.2 R 0.70 0.43 o 691 0.85 Yes Yes
2018TR6 O C K 2018-11-11.39848 1.000E-05 03:43:42.690 1.500E-01 0.500 F 0.033 0.189 +30° 23' 53.00" 1.000E-01 0.500 F 0.228 0.347 21.9 R 0.70 0.13 o 691 0.97 Yes Yes
2018TR6 O C K 2018-11-11.41302 1.000E-05 03:43:42.790 1.500E-01 0.500 F 0.033 -0.159 +30° 23' 51.10" 1.000E-01 0.500 F 0.228 0.048 22.4 R 0.70 0.63 o 691 0.40 Yes Yes
2018VW1 O C K 2018-11-12.06600 1.000E-05 21:48:31.030 1.500E-01 0.500 F -0.012 -0.592 +04° 04' 35.10" 1.000E-01 0.500 F 0.317 -0.159 o 691 1.24 Yes No
2018VW1 O C K 2018-11-12.06939 1.000E-05 21:48:32.430 1.500E-01 0.500 F -0.012 -0.017 +04° 04' 44.60" 1.000E-01 0.500 F 0.317 0.022 o 691 0.05 Yes No
2018UM1 O C K 2018-11-12.07599 1.000E-05 00:36:57.110 1.500E-01 0.500 F -0.171 -0.302 +13° 42' 30.00" 1.000E-01 0.500 F 0.214 -0.063 21.1 R 0.70 0.52 o 691 0.62 Yes Yes
2018UM1 O C K 2018-11-12.08079 1.000E-05 00:36:57.870 1.500E-01 0.500 F -0.171 0.127 +13° 42' 27.50" 1.000E-01 0.500 F 0.214 0.004 20.1 R 0.70 -0.48 o 691 0.26 Yes Yes
2018UM1 O C K 2018-11-12.08560 1.000E-05 00:36:58.580 1.500E-01 0.500 F -0.171 -0.162 +13° 42' 25.60" 1.000E-01 0.500 F 0.214 0.684 20.2 R 0.70 -0.38 o 691 1.41 Yes Yes
2018TG6 O C K 2018-11-12.23206 1.000E-05 23:47:10.130 1.500E-01 0.500 F -0.064 0.564 +02° 45' 39.10" 1.000E-01 0.500 F 0.294 -0.210 20.2 R 0.70 0.27 o 691 1.21 Yes Yes
2018TG6 O C K 2018-11-12.24334 1.000E-05 23:47:04.460 1.500E-01 0.500 F -0.064 0.941 +02° 46' 07.60" 1.000E-01 0.500 F 0.294 -0.227 o 691 1.94 Yes No
2018TG6 O C K 2018-11-12.25461 1.000E-05 23:46:58.870 1.500E-01 0.500 F -0.064 1.379 +02° 46' 36.40" 1.000E-01 0.500 F 0.294 0.156 20.3 R 0.70 0.37 o 691 2.78 Yes Yes
2018UN1 O C K 2018-11-12.27168 1.000E-05 01:11:49.600 1.500E-01 0.500 F -0.314 -0.270 -11° 24' 41.00" 1.000E-01 0.500 F 0.060 -0.095 18.7 R 0.70 -0.17 o 691 0.58 Yes Yes
2018UN1 O C K 2018-11-12.27631 1.000E-05 01:11:48.320 1.500E-01 0.500 F -0.314 0.299 -11° 24' 50.80" 1.000E-01 0.500 F 0.060 0.195 18.9 R 0.70 0.03 o 691 0.72 Yes Yes
2018UN1 O C K 2018-11-12.28093 1.000E-05 01:11:46.980 1.500E-01 0.500 F -0.314 -0.059 -11° 25' 01.10" 1.000E-01 0.500 F 0.060 -0.039 19.1 R 0.70 0.23 o 691 0.14 Yes Yes
2018VB1 O C K 2018-11-12.28793 1.000E-05 01:33:39.520 1.500E-01 0.500 F -0.197 -0.017 +08° 40' 33.40" 1.000E-01 0.500 F 0.291 -0.047 19.2 R 0.70 0.15 o 691 0.10 Yes Yes
2018VB1 O C K 2018-11-12.29281 1.000E-05 01:33:36.020 1.500E-01 0.500 F -0.197 -0.196 +08° 40' 35.00" 1.000E-01 0.500 F 0.291 0.024 19.1 R 0.70 0.05 o 691 0.40 Yes Yes
2018VB1 O C K 2018-11-12.29768 1.000E-05 01:33:32.550 1.500E-01 0.500 F -0.197 -0.090 +08° 40' 36.40" 1.000E-01 0.500 F 0.291 -0.087 19.3 R 0.70 0.25 o 691 0.25 Yes Yes
2018VL1 O C K 2018-11-12.30574 1.000E-05 03:14:42.530 1.500E-01 0.500 F -0.581 -0.497 -16° 15' 10.40" 1.000E-01 0.500 F 0.118 0.195 18.8 R 0.70 -0.53 o 691 1.11 Yes Yes
2018VL1 O C K 2018-11-12.30925 1.000E-05 03:14:43.020 1.500E-01 0.500 F -0.581 0.113 -16° 15' 47.40" 1.000E-01 0.500 F 0.118 0.308 19.2 R 0.70 -0.13 o 691 0.68 Yes Yes
2018VL1 O C K 2018-11-12.31276 1.000E-05 03:14:43.480 1.500E-01 0.500 F -0.581 0.288 -16° 16' 24.00" 1.000E-01 0.500 F 0.118 0.822 o 691 1.81 Yes No
2018UC1 O C K 2018-11-12.32508 1.000E-05 02:06:29.250 1.500E-01 0.500 F -0.324 0.009 +14° 32' 05.90" 1.000E-01 0.500 F 0.241 -0.154 21.3 R 0.70 0.31 o 691 0.32 Yes Yes
2018UC1 O C K 2018-11-12.34510 1.000E-05 02:06:27.690 1.500E-01 0.500 F -0.324 0.469 +14° 31' 24.00" 1.000E-01 0.500 F 0.241 -0.941 20.8 R 0.70 -0.19 o 691 2.15 Yes Yes
2018UC1 O C K 2018-11-12.36513 1.000E-05 02:06:26.160 1.500E-01 0.500 F -0.324 1.207 +14° 30' 43.50" 1.000E-01 0.500 F 0.241 -0.266 20.6 R 0.70 -0.39 o 691 2.52 Yes Yes
2018UD O C K 2018-11-12.38557 1.000E-05 02:09:11.500 1.500E-01 0.500 F -0.357 -0.083 +15° 54' 53.20" 1.000E-01 0.500 F 0.301 -0.121 21.3 R 0.70 0.03 o 691 0.31 Yes Yes
2018UD O C K 2018-11-12.39775 1.000E-05 02:09:10.670 1.500E-01 0.500 F -0.357 0.084 +15° 54' 53.00" 1.000E-01 0.500 F 0.301 0.108 21.2 R 0.70 -0.07 o 691 0.29 Yes Yes
2018UD O C K 2018-11-12.40995 1.000E-05 02:09:09.840 1.500E-01 0.500 F -0.357 0.241 +15° 54' 53.00" 1.000E-01 0.500 F 0.301 0.544 21.0 R 0.70 -0.27 o 691 1.23 Yes Yes
2018UJ O C K 2018-11-12.42182 1.000E-05 03:05:38.760 1.500E-01 0.500 F -0.322 -0.348 +02° 04' 31.60" 1.000E-01 0.500 F 0.273 -0.284 20.1 R 0.70 -0.22 o 691 0.90 Yes Yes
2018UJ O C K 2018-11-12.42673 1.000E-05 03:05:39.610 1.500E-01 0.500 F -0.322 0.441 +02° 04' 26.40" 1.000E-01 0.500 F 0.273 -0.677 20.1 R 0.70 -0.22 o 691 1.63 Yes Yes
2018UJ O C K 2018-11-12.43163 1.000E-05 03:05:40.370 1.500E-01 0.500 F -0.322 -0.120 +02° 04' 22.00" 1.000E-01 0.500 F 0.273 -0.280 20.6 R 0.70 0.28 o 691 0.61 Yes Yes
2000UR13 O C 2018-11-12.43783 1.000E-05 02:17:21.030 1.500E-01 0.500 F -0.155 0.101 +23° 48' 46.70" 1.000E-01 0.500 F 0.229 -0.161 20.2 V 0.70 0.28 o 691 0.38 Yes Yes
2018VK O C K 2018-11-12.43783 1.000E-05 02:20:06.320 1.500E-01 0.500 F -0.142 -0.276 +23° 46' 52.40" 1.000E-01 0.500 F 0.235 0.220 21.1 R 0.70 0.34 o 691 0.75 Yes Yes
2000UR13 O C 2018-11-12.44516 1.000E-05 02:17:20.520 1.500E-01 0.500 F -0.155 -0.018 +23° 48' 44.20" 1.000E-01 0.500 F 0.229 0.254 20.6 V 0.70 0.68 o 691 0.51 Yes Yes
2018VK O C K 2018-11-12.44516 1.000E-05 02:20:07.680 1.500E-01 0.500 F -0.142 -0.056 +23° 46' 52.90" 1.000E-01 0.500 F 0.235 0.187 21.1 R 0.70 0.34 o 691 0.41 Yes Yes
2000UR13 O C 2018-11-12.45248 1.000E-05 02:17:19.990 1.500E-01 0.500 F -0.155 -0.430 +23° 48' 40.90" 1.000E-01 0.500 F 0.229 -0.133 20.4 V 0.70 0.48 o 691 0.90 Yes Yes
2018VK O C K 2018-11-12.45248 1.000E-05 02:20:09.020 1.500E-01 0.500 F -0.142 -0.191 +23° 46' 53.20" 1.000E-01 0.500 F 0.235 -0.020 21.3 R 0.70 0.54 o 691 0.41 Yes Yes
2018UY O C K 2018-11-12.46012 1.000E-05 03:03:20.520 1.500E-01 0.500 F -0.217 0.099 +15° 00' 38.40" 1.000E-01 0.500 F 0.263 -0.046 21.0 R 0.70 1.02 o 691 0.22 Yes Yes
2012WP3 O C 2018-11-12.46012 1.000E-05 03:02:06.340 1.500E-01 0.500 F -0.197 -0.148 +14° 24' 46.40" 1.000E-01 0.500 F 0.289 -0.122 16.8 V 0.70 0.13 o 691 0.38 Yes Yes
2018UY O C K 2018-11-12.46350 1.000E-05 03:03:19.910 1.500E-01 0.500 F -0.217 0.383 +15° 00' 35.70" 1.000E-01 0.500 F 0.263 -0.337 21.0 R 0.70 1.02 o 691 1.02 Yes Yes
2012WP3 O C 2018-11-12.46350 1.000E-05 03:02:06.320 1.500E-01 0.500 F -0.197 -0.066 +14° 24' 34.80" 1.000E-01 0.500 F 0.289 -0.142 16.8 V 0.70 0.13 o 691 0.31 Yes Yes
2018UY O C K 2018-11-12.46689 1.000E-05 03:03:19.250 1.500E-01 0.500 F -0.217 -0.037 +15° 00' 33.50" 1.000E-01 0.500 F 0.263 -0.119 21.4 R 0.70 1.42 o 691 0.25 Yes Yes
2012WP3 O C 2018-11-12.46689 1.000E-05 03:02:06.300 1.500E-01 0.500 F -0.197 0.009 +14° 24' 23.20" 1.000E-01 0.500 F 0.289 -0.128 16.8 V 0.70 0.13 o 691 0.26 Yes Yes
2018TK2 O C H 2018-11-13.13189 1.000E-05 23:10:22.690 1.500E-01 0.500 F -0.269 0.447 -12° 01' 22.60" 1.000E-01 0.500 F 0.276 0.485 20.3 R 0.70 0.35 o 691 1.33 Yes Yes
2018TK2 O C H 2018-11-13.14364 1.000E-05 23:10:23.890 1.500E-01 0.500 F -0.269 0.504 -12° 00' 56.40" 1.000E-01 0.500 F 0.276 0.376 20.8 R 0.70 0.85 o 691 1.27 Yes Yes
2018TK2 O C H 2018-11-13.15539 1.000E-05 23:10:24.910 1.500E-01 0.500 F -0.269 -2.107 -12° 00' 32.10" 1.000E-01 0.500 F 0.276 -1.682 21.0 R 0.70 1.05 o 691 5.33 No Yes
2005UD O C 2018-11-13.16750 1.000E-05 23:41:38.650 1.500E-01 0.500 F -0.179 -0.212 +05° 08' 57.80" 1.000E-01 0.500 F 0.262 -0.079 19.7 V 0.70 0.20 o 691 0.45 Yes Yes
2018TC3 O C H 2018-11-13.17266 1.000E-05 23:48:11.040 1.500E-01 0.500 F -0.250 0.216 -19° 18' 55.90" 1.000E-01 0.500 F 0.198 0.137 19.7 R 0.70 0.56 o 691 0.52 Yes Yes
2005UD O C 2018-11-13.18026 1.000E-05 23:41:38.210 1.500E-01 0.500 F -0.179 -0.596 +05° 08' 59.20" 1.000E-01 0.500 F 0.262 0.456 19.6 V 0.70 0.10 o 691 1.50 Yes Yes
2018TC3 O C H 2018-11-13.18527 1.000E-05 23:48:10.700 1.500E-01 0.500 F -0.250 -0.306 -19° 18' 34.00" 1.000E-01 0.500 F 0.198 -0.126 19.2 R 0.70 0.06 o 691 0.67 Yes Yes
2005UD O C 2018-11-13.19272 1.000E-05 23:41:37.830 1.500E-01 0.500 F -0.179 -0.249 +05° 08' 59.90" 1.000E-01 0.500 F 0.262 0.315 19.5 V 0.70 0.00 o 691 0.80 Yes Yes
2018TC3 O C H 2018-11-13.19771 1.000E-05 23:48:10.430 1.500E-01 0.500 F -0.250 0.069 -19° 18' 12.00" 1.000E-01 0.500 F 0.198 -0.052 19.0 R 0.70 -0.14 o 691 0.17 Yes Yes
2018VB9 O C H 2018-11-13.39769 1.000E-05 05:40:08.510 1.500E-01 0.500 F -0.004 -0.775 -22° 57' 07.80" 1.000E-01 0.500 F 0.030 0.424 o 691 1.78 Yes No
2018VB9 O C H 2018-11-13.40945 1.000E-05 05:40:09.040 1.500E-01 0.500 F -0.004 -0.425 -22° 57' 12.10" 1.000E-01 0.500 F 0.030 -1.404 o 691 2.95 Yes No
2001TD45 O C H 2018-11-14.14132 1.000E-05 22:22:42.740 1.500E-01 0.500 F -0.020 -0.094 +07° 23' 35.40" 1.000E-01 0.500 F 0.325 -0.280 19.3 R 0.70 0.50 o 691 0.59 Yes Yes
2001TD45 O C H 2018-11-14.14737 1.000E-05 22:22:44.540 1.500E-01 0.500 F -0.020 -0.160 +07° 23' 48.10" 1.000E-01 0.500 F 0.325 0.683 o 691 1.41 Yes No
2001TD45 O C H 2018-11-14.15342 1.000E-05 22:22:46.340 1.500E-01 0.500 F -0.020 -0.223 +07° 23' 59.40" 1.000E-01 0.500 F 0.325 0.259 o 691 0.68 Yes No
2018UM1 O C K 2018-11-14.22420 1.000E-05 00:42:46.540 1.500E-01 0.500 F -0.225 0.133 +13° 23' 06.40" 1.000E-01 0.500 F 0.304 -0.285 21.5 R 0.70 0.76 o 691 0.63 Yes Yes
2018UM1 O C K 2018-11-14.23009 1.000E-05 00:42:47.360 1.500E-01 0.500 F -0.225 0.147 +13° 23' 02.90" 1.000E-01 0.500 F 0.304 -0.746 21.1 R 0.70 0.36 o 691 1.52 Yes Yes
2018UM1 O C K 2018-11-14.23597 1.000E-05 00:42:48.200 1.500E-01 0.500 F -0.225 0.458 +13° 23' 00.50" 1.000E-01 0.500 F 0.304 -0.098 20.6 R 0.70 -0.14 o 691 0.94 Yes Yes
2018RL O C H 2018-11-14.24128 1.000E-05 00:33:46.310 1.500E-01 0.500 F -0.212 0.092 +06° 37' 17.00" 1.000E-01 0.500 F 0.328 -0.151 18.0 R 0.70 0.67 o 691 0.36 Yes Yes
2018RL O C H 2018-11-14.24792 1.000E-05 00:33:49.010 1.500E-01 0.500 F -0.212 -0.064 +06° 36' 41.90" 1.000E-01 0.500 F 0.328 0.067 18.0 R 0.70 0.67 o 691 0.19 Yes Yes
2018RL O C H 2018-11-14.25454 1.000E-05 00:33:51.730 1.500E-01 0.500 F -0.212 0.178 +06° 36' 06.60" 1.000E-01 0.500 F 0.328 -0.021 18.0 R 0.70 0.67 o 691 0.36 Yes Yes
2018VN5 O C H 2018-11-15.23870 1.000E-05 04:18:35.980 1.500E-01 0.500 F -0.340 0.096 +23° 56' 07.40" 1.000E-01 0.500 F 0.305 0.067 o 691 0.24 Yes No
2018VN5 O C H 2018-11-15.24673 1.000E-05 04:18:35.420 1.500E-01 0.500 F -0.340 0.353 +23° 55' 37.50" 1.000E-01 0.500 F 0.305 -0.017 o 691 0.71 Yes No
2018VN5 O C H 2018-11-15.25476 1.000E-05 04:18:34.800 1.500E-01 0.500 F -0.340 -0.034 +23° 55' 07.20" 1.000E-01 0.500 F 0.305 -0.393 o 691 0.79 Yes No
2009JL1 O C 2018-11-15.36886 1.000E-05 05:58:09.540 1.500E-01 0.500 F -0.077 -0.391 -15° 40' 54.20" 1.000E-01 0.500 F -0.065 0.628 17.7 V 0.70 0.04 o 691 1.51 Yes Yes
2009JL1 O C 2018-11-15.37684 1.000E-05 05:58:07.630 1.500E-01 0.500 F -0.077 -0.113 -15° 39' 46.50" 1.000E-01 0.500 F -0.065 0.083 17.7 V 0.70 0.04 o 691 0.29 Yes Yes
2009JL1 O C 2018-11-15.38480 1.000E-05 05:58:05.700 1.500E-01 0.500 F -0.077 -0.147 -15° 38' 38.60" 1.000E-01 0.500 F -0.065 -0.165 17.8 V 0.70 0.14 o 691 0.45 Yes Yes
2018VA10 O C K 2018-11-15.46456 1.000E-05 08:55:56.070 1.500E-01 0.500 F 0.020 0.127 +12° 15' 22.40" 1.000E-01 0.500 F 0.271 0.005 20.9 R 0.70 0.39 o 691 0.26 Yes Yes
2018VA10 O C K 2018-11-15.47427 1.000E-05 08:55:56.920 1.500E-01 0.500 F 0.020 -0.127 +12° 15' 46.70" 1.000E-01 0.500 F 0.271 -0.227 21.0 R 0.70 0.49 o 691 0.52 Yes Yes
2018RJ7 O C H 2018-11-15.48006 1.000E-05 10:13:32.330 1.500E-01 0.500 F 0.084 0.444 -17° 49' 20.20" 1.000E-01 0.500 F 0.060 -0.349 21.4 R 0.70 1.03 o 691 1.13 Yes Yes
2018RJ7 O C H 2018-11-15.48842 1.000E-05 10:13:35.250 1.500E-01 0.500 F 0.084 0.569 -17° 48' 58.90" 1.000E-01 0.500 F 0.060 0.156 21.2 R 0.70 0.83 o 691 1.19 Yes Yes
2018RJ7 O C H 2018-11-15.49677 1.000E-05 10:13:38.130 1.500E-01 0.500 F 0.084 0.277 -17° 48' 38.30" 1.000E-01 0.500 F 0.060 -0.041 20.9 R 0.70 0.53 o 691 0.56 Yes Yes
2018VK10 O C 2018-11-15.50648 1.000E-05 09:14:46.560 1.500E-01 0.612 F 0.112 -0.330 +23° 02' 35.30" 1.000E-01 0.612 F 0.338 0.106 20.5 V 0.70 -0.55 o 691 0.57 Yes Yes
2018VK10 O C 2018-11-15.51097 1.000E-05 09:14:47.530 1.500E-01 0.612 F 0.112 -0.311 +23° 02' 21.80" 1.000E-01 0.612 F 0.338 0.176 20.5 V 0.70 -0.55 o 691 0.59 Yes Yes
2018VK10 O C 2018-11-15.51547 1.000E-05 09:14:48.520 1.500E-01 0.612 F 0.112 -0.045 +23° 02' 07.80" 1.000E-01 0.612 F 0.338 -0.218 20.7 V 0.70 -0.35 o 691 0.37 Yes Yes
2018VK10 O C H 2018-11-15.53259 1.000E-05 09:14:52.200 1.500E-01 0.612 F 0.112 -0.214 +23° 01' 16.30" 1.000E-01 0.612 F 0.338 0.095 20.5 R 0.70 -0.15 o 691 0.39 Yes Yes
2018VK10 O C H 2018-11-15.53380 1.000E-05 09:14:52.500 1.500E-01 0.612 F 0.112 0.326 +23° 01' 12.80" 1.000E-01 0.612 F 0.338 0.260 20.5 R 0.70 -0.15 o 691 0.69 Yes Yes
2018VK10 O C H 2018-11-15.53501 1.000E-05 09:14:52.750 1.500E-01 0.612 F 0.112 0.175 +23° 01' 09.10" 1.000E-01 0.612 F 0.338 0.225 20.4 R 0.70 -0.25 o 691 0.47 Yes Yes
2018TS O C H 2018-11-16.14926 1.000E-05 01:03:30.870 1.500E-01 0.500 F -0.274 0.016 +02° 32' 43.40" 1.000E-01 0.500 F 0.297 -0.046 19.5 R 0.70 0.10 o 691 0.10 Yes Yes
2018TS O C H 2018-11-16.15532 1.000E-05 01:03:31.730 1.500E-01 0.500 F -0.274 -0.099 +02° 32' 52.00" 1.000E-01 0.500 F 0.297 0.258 19.8 R 0.70 0.40 o 691 0.55 Yes Yes
2018TS O C H 2018-11-16.16137 1.000E-05 01:03:32.600 1.500E-01 0.500 F -0.274 -0.025 +02° 32' 59.70" 1.000E-01 0.500 F 0.297 -0.325 19.6 R 0.70 0.20 o 691 0.66 Yes Yes
2018VG10 O C K 2018-11-16.16759 1.000E-05 01:53:22.780 1.500E-01 0.500 F -0.348 0.179 -11° 46' 03.80" 1.000E-01 0.500 F 0.111 0.133 20.3 R 0.70 0.28 o 691 0.45 Yes Yes
2018LZ5 O C H 2018-11-16.17341 1.000E-05 01:54:36.030 1.500E-01 0.500 F -0.207 -0.500 -07° 52' 12.80" 1.000E-01 0.500 F 0.166 1.159 20.7 R 0.70 -0.08 o 691 2.54 Yes Yes
2018VG10 O C K 2018-11-16.17566 1.000E-05 01:53:22.980 1.500E-01 0.500 F -0.348 -0.141 -11° 45' 33.00" 1.000E-01 0.500 F 0.111 0.056 20.2 R 0.70 0.18 o 691 0.31 Yes Yes
2018LZ5 O C H 2018-11-16.18148 1.000E-05 01:54:36.080 1.500E-01 0.500 F -0.207 -0.535 -07° 52' 11.30" 1.000E-01 0.500 F 0.166 -0.327 20.6 R 0.70 -0.18 o 691 1.26 Yes Yes
2018VG10 O C K 2018-11-16.18373 1.000E-05 01:53:23.190 1.500E-01 0.500 F -0.348 -0.296 -11° 45' 01.90" 1.000E-01 0.500 F 0.111 0.272 20.2 R 0.70 0.18 o 691 0.82 Yes Yes
2018LZ5 O C H 2018-11-16.18955 1.000E-05 01:54:36.160 1.500E-01 0.500 F -0.207 -0.115 -07° 52' 07.70" 1.000E-01 0.500 F 0.166 0.281 21.2 R 0.70 0.42 o 691 0.61 Yes Yes
2018PJ22 O C 2018-11-16.23416 1.000E-05 04:02:12.590 1.500E-01 0.500 F -0.203 -0.109 -12° 13' 17.30" 1.000E-01 0.500 F 0.073 -0.092 o 691 0.29 Yes No
2018PJ22 O C 2018-11-16.24032 1.000E-05 04:02:12.380 1.500E-01 0.500 F -0.203 -0.277 -12° 13' 19.00" 1.000E-01 0.500 F 0.073 0.081 o 691 0.58 Yes No
2018PJ22 O C 2018-11-16.24647 1.000E-05 04:02:12.190 1.500E-01 0.500 F -0.203 -0.144 -12° 13' 20.90" 1.000E-01 0.500 F 0.073 0.044 o 691 0.30 Yes No

[1-200] [201-400] [401-600] [601-800] [801-1000] [1001-1200] [1201-1400] [1401-1600] [1601-1800] [1801-2000] [2001-2200] [2201-2400] [2401-2600] [2601-2800] [2801-3000] [3001-3200] [3201-3400] [3401-3600] [3601-3800] [3801-4000] [4001-4200] [4201-4400] [4401-4600] [4601-4800] [4801-5000] [5001-5200] [5201-5400] [5401-5600] [5601-5800] [5801-6000] [6001-6200] [6201-6400] [6401-6600] [6601-6800] [6801-7000] [7001-7200] [7201-7400] [7401-7600] [7601-7800] [7801-8000] [8001-8200] [8201-8400] [8401-8600] [8601-8800] [8801-9000] [9001-9200] [9201-9400] [9401-9600] [9601-9800] [9801-10000] [10001-10200] [10201-10400] [10401-10600] [10601-10800] [10801-11000] [11001-11200] [11201-11400] [11401-11600] [11601-11800] [11801-12000] [12001-12200] [12201-12400] [12401-12600] [12601-12800] [12801-13000] [13001-13200] [13201-13400] [13401-13600] [13601-13800] [13801-14000] [14001-14200] [14201-14400] [14401-14600] [14601-14800] [14801-15000] [15001-15200] [15201-15400] [15401-15600] [15601-15800] [15801-16000] [16001-16200] [16201-16400] [16401-16600] [16601-16800] [16801-17000] [17001-17200] [17201-17400] [17401-17600] [17601-17800] [17801-18000] [18001-18200] [18201-18400] [18401-18600] [18601-18800] [18801-19000] [19001-19200] [19201-19400] [19401-19600] [19601-19800] [19801-20000] [20001-20200] [20201-20400] [20401-20600] [20601-20800] [20801-21000] [21001-21200] [21201-21400] [21401-21600] [21601-21800] [21801-22000] [22001-22200] [22201-22400] [22401-22600] [22601-22800] [22801-23000] [23001-23200] [23201-23400] [23401-23600] [23601-23800] [23801-24000] [24001-24200] [24201-24400] [24401-24600] [24601-24800] [24801-25000] [25001-25200] [25201-25400] [25401-25600] [25601-25800] [25801-26000] [26001-26200] [26201-26400] [26401-26600] [26601-26800] [26801-27000] [27001-27200] [27201-27400] [27401-27600] [27601-27800] [27801-28000] [28001-28200] [28201-28400] [28401-28600] [28601-28800] [28801-29000] [29001-29200] [29201-29400] [29401-29600] [29601-29800] [29801-30000] [30001-30200] [30201-30400] [30401-30600] [30601-30800] [30801-31000] [31001-31200] [31201-31400] [31401-31600] [31601-31800] [31801-32000] [32001-32200] [32201-32400] [32401-32600] [32601-32800] [32801-33000] [33001-33200] [33201-33400] [33401-33600] [33601-33800] [33801-34000] [34001-34200] [34201-34400] [34401-34600] [34601-34800] [34801-35000] [35001-35200] [35201-35400] [35401-35600] [35601-35800] [35801-36000] [36001-36200] [36201-36400] [36401-36600] [36601-36800] [36801-37000] [37001-37200] [37201-37400] [37401-37600] [37601-37800] [37801-38000] [38001-38200] [38201-38400] [38401-38600] [38601-38800] [38801-39000] [39001-39200] [39201-39400] [39401-39600] [39601-39800] [39801-40000] [40001-40200] [40201-40400] [40401-40600] [40601-40800] [40801-41000] [41001-41200] [41201-41400] [41401-41600] [41601-41800] [41801-42000] [42001-42200] [42201-42400] [42401-42600] [42601-42800] [42801-43000] [43001-43200] [43201-43400] [43401-43600] [43601-43800] [43801-44000] [44001-44200] [44201-44400] [44401-44600] [44601-44800] [44801-45000] [45001-45200] [45201-45400] [45401-45600] [45601-45800] [45801-46000] [46001-46200] [46201-46400] [46401-46600] [46601-46800] [46801-47000] [47001-47200] [47201-47400] [47401-47600] [47601-47800] [47801-48000] [48001-48200] [48201-48400] [48401-48600] [48601-48800] [48801-49000] [49001-49200] [49201-49400] [49401-49600] [49601-49800] [49801-50000] [50001-50200] [50201-50388]